This demonstration page uses our WeatherBlox Daily Observations layout. Learn more.

39.92423, -83.80882

Hourly Observations for June 3, 2017

Temp ( °F °C ) Dew Point ( °F °C ) Humidity (%) Winds ( mph kmh ) Pressure ( in mb ) Visibility ( mi km ) Precip ( " mm )
12:58 am 00:58 Clear 59 14.9 51 10.7 76 76 Calm 30.06 1018 10 16.0934 0 0
1:58 am 01:58 Clear 56 13.5 51 10.4 82 82 Calm 30.06 1018 10 16.0934 0 0
2:58 am 02:58 Clear 57 13.8 53 11.7 87 87 Calm 30.06 1018 10 16.0934 0 0
3:58 am 03:58 Clear 55 12.5 52 10.9 90 90 Calm 30.06 1018 10 16.0934 0 0
4:58 am 04:58 Clear 53 11.6 51 10.8 95 95 Calm 30.06 1018 10 16.0934 0 0
5:58 am 05:58 Clear 54 12.3 52 11.1 92 92 Calm 30.08 1019 10 16.0934 0 0
6:58 am 06:58 Sunny 53 11.5 52 11 97 97 Calm 30.09 1019 10 16.0934 0 0
7:58 am 07:58 Sunny 59 14.8 56 13.3 91 91 Calm 30.1 1019 10 16.0934 0 0
8:58 am 08:58 Sunny 66 19 56 13.3 70 70 SSW 6 9 30.1 1019 10 16.0934 0 0
9:58 am 09:58 Sunny 74 23.1 55 12.9 53 53 SW 5 7 30.09 1019 10 16.0934 0 0
10:58 am 10:58 Sunny 79 25.9 54 12.2 43 43 W 8 13 30.09 1019 10 16.0934 0 0
11:58 am 11:58 Sunny 82 27.7 50 10.2 33 33 WSW 7 11 30.07 1018 10 16.0934 0 0
12:58 pm 12:58 Mostly Cloudy 84 28.7 48 9.1 29 29 WNW 8 13 30.06 1018 10 16.0934 0 0
1:58 pm 13:58 Mostly Cloudy 84 28.9 47 8.5 28 28 WSW 5 7 30.06 1018 10 16.0934 0 0
2:58 pm 14:58 Mostly Cloudy 85 29.2 48 8.9 28 28 W 9 15 30.04 1017 10 16.0934 0 0
3:58 pm 15:58 Partly Cloudy 84 29 48 9.1 29 29 Calm 30.03 1017 10 16.0934 0 0
4:58 pm 16:58 Partly Cloudy 87 30.3 47 8.3 25 25 W 3 6 30.01 1016 10 16.0934 0 0.0254
5:58 pm 17:58 Partly Cloudy 85 29.5 50 9.8 29 29 SSW 8 13 30.01 1016 10 16.0934 0 0
6:58 pm 18:58 Partly Cloudy 83 28.4 49 9.6 31 31 SSE 9 15 30 1016 10 16.0934 0 0
7:58 pm 19:58 Partly Cloudy 82 27.5 50 9.8 33 33 SSE 7 11 29.98 1015 10 16.0934 0 0
8:58 pm 20:58 Partly Cloudy 76 24.4 52 11.2 44 44 S 6 9 29.97 1015 10 16.0934 0 0
9:58 pm 21:58 Clear 72 22.2 55 12.6 55 55 Calm 29.97 1015 10 16.0934 0 0
10:58 pm 22:58 Clear 71 21.8 52 11 50 50 Calm 29.99 1016 10 16.0934 0 0
11:58 pm 23:58 Clear 71 21.8 50 10.1 47 47 Calm 30.01 1016 10 16.0934 0 0

Powered by AerisWeather